• In Spain
  • List of Countries
  • For 7 days
  • Water Temperature
  • Satellite Maps
  • Weather Map
  • Weather Widgets
  • user-avatar
    Login

    Hourly Weather Satif

    Today, 21 January, Sunday

    Time Temperature Precipitation Wind Pressure Humidity
    00:00 +4°C° 0 mm 2 mps 674 mmHg 88%
    01:00 +4°C° 0 mm 2 mps 674 mmHg 84%
    02:00 +4°C° 0 mm 2 mps 673 mmHg 81%
    03:00 +3°C° 0 mm 2 mps 673 mmHg 77%
    04:00 +4°C° 0 mm 2 mps 673 mmHg 75%
    05:00 +4°C° 0 mm 2 mps 673 mmHg 72%
    06:00 +4°C° 0 mm 2 mps 673 mmHg 69%
    07:00 +5°C° 0 mm 2 mps 674 mmHg 64%
    08:00 +7°C° 0 mm 3 mps 674 mmHg 59%
    09:00 +9°C° 0 mm 3 mps 675 mmHg 54%
    10:00 +10°C° 0 mm 4 mps 675 mmHg 53%
    11:00 +12°C° 0 mm 4 mps 676 mmHg 52%
    12:00 +13°C° 0 mm 5 mps 676 mmHg 51%
    13:00 +13°C° 0 mm 5 mps 676 mmHg 52%
    14:00 +13°C° 0 mm 5 mps 676 mmHg 53%
    15:00 +13°C° 0 mm 5 mps 676 mmHg 55%
    16:00 +11°C° 0 mm 4 mps 675 mmHg 62%
    17:00 +10°C° 0 mm 3 mps 675 mmHg 70%
    18:00 +8°C° 0 mm 2 mps 675 mmHg 77%
    19:00 +8°C° 0 mm 2 mps 675 mmHg 80%
    20:00 +8°C° 0 mm 2 mps 676 mmHg 82%
    21:00 +7°C° 0 mm 2 mps 676 mmHg 84%
    22:00 +7°C° 0 mm 2 mps 676 mmHg 84%
    23:00 +7°C° 0 mm 2 mps 676 mmHg 85%

    Tomorrow, 22 January, Monday

    Time Temperature Precipitation Wind Pressure Humidity
    00:00 +6°C° 0 mm 2 mps 676 mmHg 85%
    01:00 +6°C° 0 mm 2 mps 676 mmHg 85%
    02:00 +6°C° 0 mm 2 mps 676 mmHg 85%
    03:00 +6°C° 0 mm 2 mps 676 mmHg 85%
    04:00 +6°C° 0 mm 2 mps 676 mmHg 86%
    05:00 +6°C° 0 mm 1 mps 676 mmHg 86%
    06:00 +6°C° 0 mm 1 mps 676 mmHg 86%
    07:00 +8°C° 0 mm 1 mps 677 mmHg 80%
    08:00 +9°C° 0 mm 1 mps 677 mmHg 74%
    09:00 +11°C° 0 mm 1 mps 678 mmHg 68%
    10:00 +12°C° 0 mm 2 mps 678 mmHg 63%
    11:00 +13°C° 0 mm 2 mps 678 mmHg 58%
    12:00 +15°C° 0 mm 2 mps 678 mmHg 52%
    13:00 +14°C° 0 mm 3 mps 678 mmHg 51%
    14:00 +14°C° 0 mm 3 mps 678 mmHg 50%
    15:00 +14°C° 0 mm 3 mps 677 mmHg 49%
    16:00 +14°C° 0 mm 2 mps 677 mmHg 57%
    17:00 +12°C° 0 mm 2 mps 677 mmHg 64%
    18:00 +9°C° 0 mm 2 mps 677 mmHg 71%
    19:00 +10°C° 0 mm 1 mps 677 mmHg 73%
    20:00 +9°C° 0 mm 1 mps 677 mmHg 76%
    21:00 +9°C° 0 mm 1 mps 677 mmHg 78%
    22:00 +8°C° 0 mm 1 mps 677 mmHg 79%
    23:00 +8°C° 0 mm 1 mps 677 mmHg 80%

    Day after tomorrow, 23 January, Tuesday

    Time Temperature Precipitation Wind Pressure Humidity
    00:00 +8°C° 0 mm 1 mps 676 mmHg 81%
    01:00 +7°C° 0 mm 1 mps 676 mmHg 81%
    02:00 +7°C° 0 mm 1 mps 676 mmHg 82%
    03:00 +7°C° 0 mm 1 mps 676 mmHg 82%
    04:00 +7°C° 0 mm 1 mps 676 mmHg 82%
    05:00 +6°C° 0 mm 1 mps 676 mmHg 82%
    06:00 +6°C° 0 mm 1 mps 676 mmHg 81%
    07:00 +8°C° 0 mm 1 mps 677 mmHg 75%
    08:00 +9°C° 0 mm 1 mps 677 mmHg 68%
    09:00 +10°C° 0 mm 2 mps 678 mmHg 62%
    10:00 +12°C° 0 mm 2 mps 678 mmHg 57%
    11:00 +13°C° 0 mm 2 mps 678 mmHg 52%
    12:00 +14°C° 0 mm 2 mps 678 mmHg 47%
    13:00 +13°C° 0 mm 3 mps 678 mmHg 45%
    14:00 +14°C° 0 mm 3 mps 678 mmHg 44%
    15:00 +14°C° 0 mm 3 mps 678 mmHg 42%
    16:00 +12°C° 0 mm 3 mps 678 mmHg 50%
    17:00 +10°C° 0 mm 2 mps 677 mmHg 58%
    18:00 +9°C° 0 mm 2 mps 677 mmHg 65%
    19:00 +9°C° 0 mm 1 mps 677 mmHg 67%
    20:00 +8°C° 0 mm 1 mps 678 mmHg 70%
    21:00 +8°C° 0 mm 1 mps 678 mmHg 72%
    22:00 +7°C° 0 mm 1 mps 678 mmHg 72%
    23:00 +7°C° 0 mm 1 mps 678 mmHg 71%

    24 January, Wednesday

    Time Temperature Precipitation Wind Pressure Humidity
    00:00 +7°C° 0 mm 1 mps 677 mmHg 71%
    01:00 +7°C° 0 mm 1 mps 677 mmHg 70%
    02:00 +6°C° 0 mm 1 mps 677 mmHg 70%
    03:00 +6°C° 0 mm 1 mps 677 mmHg 69%
    04:00 +6°C° 0 mm 1 mps 677 mmHg 70%
    05:00 +6°C° 0 mm 1 mps 677 mmHg 70%
    06:00 +6°C° 0 mm 1 mps 677 mmHg 71%
    07:00 +7°C° 0 mm 1 mps 678 mmHg 65%
    08:00 +9°C° 0 mm 1 mps 678 mmHg 58%
    09:00 +11°C° 0 mm 1 mps 679 mmHg 51%
    10:00 +12°C° 0 mm 1 mps 679 mmHg 49%
    11:00 +13°C° 0 mm 1 mps 679 mmHg 47%
    12:00 +14°C° 0 mm 1 mps 679 mmHg 44%
    13:00 +15°C° 0 mm 1 mps 679 mmHg 44%
    14:00 +15°C° 0 mm 1 mps 679 mmHg 44%
    15:00 +15°C° 0 mm 1 mps 678 mmHg 44%
    16:00 +13°C° 0 mm 1 mps 678 mmHg 50%
    17:00 +12°C° 0 mm 1 mps 678 mmHg 57%
    18:00 +10°C° 0 mm 1 mps 678 mmHg 63%
    19:00 +10°C° 0 mm 1 mps 678 mmHg 63%
    20:00 +10°C° 0 mm 1 mps 678 mmHg 63%
    21:00 +9°C° 0 mm 1 mps 678 mmHg 63%
    22:00 +8°C° 0 mm 2 mps 677 mmHg 63%
    23:00 +8°C° 0 mm 2 mps 677 mmHg 63%

    25 January, Thursday

    Time Temperature Precipitation Wind Pressure Humidity
    00:00 +7°C° 0 mm 2 mps 677 mmHg 63%
    01:00 +7°C° 0 mm 2 mps 676 mmHg 66%
    02:00 +7°C° 0 mm 2 mps 676 mmHg 68%
    03:00 +6°C° 0 mm 2 mps 676 mmHg 71%
    04:00 +6°C° 0 mm 2 mps 676 mmHg 74%
    05:00 +5°C° 0 mm 3 mps 676 mmHg 76%
    06:00 +4°C° 0 mm 3 mps 675 mmHg 79%
    07:00 +7°C° 0 mm 3 mps 676 mmHg 74%
    08:00 +8°C° 0 mm 3 mps 676 mmHg 69%
    09:00 +9°C° 0 mm 3 mps 677 mmHg 64%
    10:00 +11°C° 0 mm 3 mps 677 mmHg 58%
    11:00 +12°C° 0 mm 4 mps 677 mmHg 52%
    12:00 +14°C° 0 mm 4 mps 677 mmHg 45%
    13:00 +14°C° 0 mm 4 mps 676 mmHg 45%
    14:00 +14°C° 0 mm 4 mps 676 mmHg 44%
    15:00 +14°C° 0 mm 3 mps 675 mmHg 44%
    16:00 +12°C° 0 mm 3 mps 675 mmHg 50%
    17:00 +11°C° 0 mm 3 mps 674 mmHg 56%
    18:00 +9°C° 0 mm 2 mps 674 mmHg 62%
    19:00 +9°C° 0 mm 2 mps 674 mmHg 65%
    20:00 +8°C° 0 mm 2 mps 674 mmHg 67%
    21:00 +8°C° 0 mm 2 mps 674 mmHg 70%
    22:00 +7°C° 0 mm 3 mps 673 mmHg 71%
    23:00 +7°C° 0 mm 3 mps 673 mmHg 71%

    26 January, Friday

    Time Temperature Precipitation Wind Pressure Humidity
    00:00 +7°C° 0 mm 3 mps 673 mmHg 72%
    01:00 +7°C° 0 mm 3 mps 673 mmHg 72%
    02:00 +5°C° 0 mm 3 mps 672 mmHg 73%
    03:00 +5°C° 0 mm 3 mps 672 mmHg 73%
    04:00 +6°C° 0 mm 2 mps 672 mmHg 74%
    05:00 +6°C° 0 mm 2 mps 672 mmHg 74%
    06:00 +6°C° 0 mm 2 mps 672 mmHg 75%
    07:00 +7°C° 0 mm 2 mps 672 mmHg 70%
    08:00 +8°C° 0 mm 2 mps 672 mmHg 65%
    09:00 +9°C° 0 mm 2 mps 673 mmHg 60%
    10:00 +10°C° 0 mm 2 mps 673 mmHg 55%
    11:00 +11°C° 0 mm 3 mps 673 mmHg 50%
    12:00 +12°C° 0 mm 3 mps 673 mmHg 45%
    13:00 +12°C° 0.2 mm 3 mps 673 mmHg 47%
    14:00 +12°C° 0.2 mm 3 mps 672 mmHg 48%
    15:00 +12°C° 0.2 mm 3 mps 672 mmHg 49%
    16:00 +10°C° 0.1 mm 3 mps 672 mmHg 55%
    17:00 +9°C° 0.1 mm 2 mps 672 mmHg 61%
    18:00 +8°C° 0.1 mm 2 mps 672 mmHg 68%
    19:00 +7°C° 0.2 mm 2 mps 672 mmHg 71%
    20:00 +8°C° 0.2 mm 1 mps 673 mmHg 75%
    21:00 +7°C° 0.2 mm 1 mps 673 mmHg 78%
    22:00 +7°C° 0.6 mm 1 mps 673 mmHg 80%
    23:00 +7°C° 0.6 mm 1 mps 673 mmHg 82%
    Show more